Location: Bottenau
(48.5138°N, 8.0462°E)
Time: 21:08:48
(UTC+00:00)

ATLAS 3B R/B - Pass Details

Date: 01 August 2021
Orbit: 1001 x 1194 km, 63.8° (Epoch: 09 September)

Event Time Altitude Azimuth Distance (km) Brightness Sun altitude
Rises 20:09:54 0° 316° (NW) 3,920 8.0 -9.6°
Reaches altitude 10° 20:12:42 10° 309° (NW) 2,988 6.7 -10.0°
Maximum altitude 20:19:10 39° 244° (WSW) 1,657 3.9 -10.8°
Drops below altitude 10° 20:25:53 10° 178° (S) 3,084 4.7 -11.6°
Enters shadow 20:27:20 - 174° (S) 3,558 5.0 -11.7°
